Location: Unspecified
(44.4377°N, 88.0525°W)
Time: 23:19:39
(UTC-05:00)

Cosmos 1674 - Visible Passes

Search period start: 19 October 2014 00:00
Search period end: 29 October 2014 00:00
Orbit: 515 x 540 km, 82.5° (Epoch: 19 October)

Date Brightness Start Highest point End Pass type
(mag) Time Alt. Az. Time Alt. Az. Time Alt. Az.
19 Oct 6.6 05:23:01 10° E 05:23:30 10° E 05:24:00 10° ENE visible
19 Oct 5.5 18:26:21 10° NNW 18:29:37 25° W 18:32:51 10° SW visible
21 Oct 2.7 06:32:17 10° SSW 06:36:13 76° W 06:40:12 10° N visible
22 Oct 2.7 06:20:56 10° S 06:24:52 84° W 06:28:52 10° N visible
23 Oct 2.8 06:09:35 10° S 06:13:31 88° E 06:17:31 10° N visible
24 Oct 2.9 05:58:14 10° S 06:02:10 81° E 06:06:09 10° N visible
25 Oct 3.0 05:46:52 10° S 05:50:47 73° E 05:54:46 10° NNE visible
26 Oct 3.1 05:35:30 10° S 05:39:24 66° E 05:43:21 10° NNE visible
27 Oct 3.3 05:24:08 10° S 05:28:01 59° E 05:31:56 10° NNE visible
28 Oct 3.5 05:12:46 10° S 05:16:37 53° E 05:20:30 10° NNE visible
28 Oct 4.6 06:51:07 10° W 06:52:56 13° WNW 06:54:44 10° NW visible
